Tracking 28790 objects as of 19-Apr-2024
HD Live streaming from Space Station
objects crossing your sky now

ATLAS 5 CENTAUR DEB

Track ATLAS 5 CENTAUR DEB now!


NORAD ID: 46607
Int'l Code: 2018-079CF
Perigee: 7,852.3 km
Apogee: 31,735.3 km
Inclination: 12.4 °
Period: 702.0 minutes
Semi major axis: 26164 km
RCS: Unknown
Launch date: October 17, 2018
Source: United States (US)
Launch site: AIR FORCE EASTERN TEST RANGE (AFETR)

Note: This is SATELLITE DEBRIS
Your satellite tracking list
Your tracking list is empty




NASA's NSSDC Master Catalog

Two Line Element Set (TLE):
1 46607U 18079CF  24108.18960038 -.00000114  00000-0  00000-0 0  9995
2 46607  12.4101  74.6198 4563947 260.9474  46.5102  2.05128803 34227
Source of the keplerian elements: AFSPC